User: anonymous   Login
Location: Haliburton Scout Reserve
(45.0900°N, 78.3200°W)
Time: 13:02:36
(UTC-05:00)
Language:

DIWATA 2B (PO-101) - Orbit

View from above orbital plane
View from above orbital plane
View from above satellite
View from above satellite

Ground track
Ground track

The orbit data is extracted from the following two-line orbital elements,

1 43678U 18084H   22338.08865863  .00001365  00000-0  13854-3 0  9990
2 43678  97.9943 113.6330 0011328  86.7572 273.4923 14.92524140223153
Epoch (UTC): 04 December 2022 02:07:40
Eccentricity: 0.0011328
inclination: 97.9943°
perigee height: 582 km
apogee height: 598 km
right ascension of ascending node: 113.6330°
argument of perigee: 86.7572°
revolutions per day: 14.92524140
mean anomaly at epoch: 273.4923°
orbit number at epoch: 22315

The dashed part of the orbit path shows where the satellite is in the earth's shadow,  

DLR